Overview Statistics Trail Chart Weather Telemetry Raw packets
 

This is the latest recevied weather packets stored in our database for station/object OM6ACB-6. If no packets are shown the sender has not sent any weather packets the latest 10 day(s).

<< 14 15 16 17 18 19 20 >>
Time Temp. Humidity Pressure Rain* Wind** Luminosity Snow
1788435285 21.67° C 22% 1023.5 hPa 0 mm - - -
1788434685 22.22° C 21% 1023.4 hPa 0 mm - - -
1788434084 -18.33° C 12% 1016.2 hPa 0 mm - - -
1788433486 27.22° C 20% 1024.3 hPa 0 mm - - -
1788432884 25.56° C 20% 1023.9 hPa 0 mm - - -
1788432283 22.78° C 21% 1023.9 hPa 0 mm - - -
1788431683 24.44° C 20% 1024.1 hPa 0 mm - - -
1788431083 22.78° C 21% 1024 hPa 0 mm - - -
1788430482 23.33° C 21% 1024.1 hPa 0 mm - - -
1788429882 24.44° C 20% 1024.6 hPa 0 mm - - -
1788429282 25.56° C 20% 1024.8 hPa 0 mm - - -
1788428682 23.33° C 21% 1024.5 hPa 0 mm - - -
1788428081 22.22° C 21% 1024.4 hPa 0 mm - - -
1788427481 25.56° C 20% 1024.7 hPa 0 mm - - -
1788426881 25° C 20% 1025 hPa 0 mm - - -
1788426281 21.67° C 22% 1024.5 hPa 0 mm - - -
1788425680 22.22° C 21% 1024.6 hPa 0 mm - - -
1788425080 22.78° C 21% 1024.8 hPa 0 mm - - -
1788424480 23.33° C 21% 1025.1 hPa 0 mm - - -
1788423879 23.33° C 21% 1024.9 hPa 0 mm - - -
1788423279 21.67° C 22% 1024.6 hPa 0 mm - - -
1788422679 22.22° C 21% 1024.7 hPa 0 mm - - -
1788422078 21.67° C 22% 1024.6 hPa 0 mm - - -
1788421478 20.56° C 22% 1024.4 hPa 0 mm - - -
1788420878 20° C 22% 1024.4 hPa 0 mm - - -

* Rain latest hour (hover to see other rain measurements)
** Current wind speed in m/s (hover to see current wind gust speed)